MDPP

Details ICAO MDPP (POP)
Name Puerto Plata Gregorio Luperon Intl
Region Dominican Republic
Timezone America/Santo_Domingo (UTC-4.0)
Plans Departing 162
Arriving 213
Stats Elevation 15 ft / 5 m (AMSL)
Location 19.757900° -70.570035°
Runways 1
Magnetic Variation 11.264° W
Sunrise 2018-06-22 10:05:47 UTC / 2018-06-22 06:05:47 Local
Sunset 2018-06-22 23:25:16 UTC / 2018-06-22 19:25:16 Local
Advertisement - Login to hide

Runways

ID Width Length Bearing (true) Bearing (mag) Surface Threshold Offset Overrun Length
08 151 ft / 46 m 10,101 ft / 3,079 m 72.95° 84.21° Asphalt 0 ft / 0 m 0 ft / 0 m
26 151 ft / 46 m 10,101 ft / 3,079 m 252.95° 264.21° Asphalt 0 ft / 0 m 0 ft / 0 m

Map

Weather


0- 5 10 15 20 25 30 35+ Temperature / ° C

Clouds and Precipitation
Forecast for 2018-06-23 00:00 UTC. Updated an hour ago

Ground ~20,000 ft ~40,000 ft Winds

METAR

MDPP 222200Z 06012KT 9999 FEW025 SCT300 31/25 Q1015

TAF

Not found

Frequencies

Ground 121.90 MHz GND
Approach 119.00 MHz PUERTO PLATA APP
Tower 118.00 MHz PUERTO PLATA TWR
Warning: Do not use this data for real-world aviation or navigation. No guarantee of current accuracy is given.